PARUS-T2

operational
NORAD ID: 64590 Int'l Des: NNA 2025-135 Owner: TASA Country: J
LEOCIRCULARRETROGRADESSO

About PARUS-T2

Description loading...

Live Position

Loading 3D Globe...

Upcoming Passes

Altitude History

Altitude vs Time

uPlot chart will show altitude changes over time

Two-Line Element Set

1 64590U 25135BQ 26062.36079211 .00002454 00000-0 23768-3 0 9999
2 64590 97.7588 178.0444 0004685 337.4905 22.6109 14.93637814 38100
Epoch: Mar 3, 2026 • Age: 18 hours

Current Status

Altitude 589.2 km
Velocity 7.57 km/s
Sub-Earth Point 32.86°N, 95.09°E
Launch Date Jun 23, 2025
Age 0.6 years
Type other

Technical Details

Classification Payload
Mass 4.00 kg
Dry Mass 4.00 kg
Total Mass 4.00 kg
Length 0.30 m
Diameter 0.10 m
Span 0.30 m
Shape Box
Manufacturer PYRAS
Bus Type Cubesat 3U
Phase Status In Orbit
Owner/State TASA/J

Large Constellations

Loading constellations...